Location: Bernadets
(43.3537°N, 0.3167°E)
Time: 04:06:06
(UTC+00:00)

Cosmos 1626 Rocket - Pass Details

Date: 24 October 2021
Orbit: 603 x 631 km, 82.5° (Epoch: 29 November)

Event Time Altitude Azimuth Distance (km) Brightness Sun altitude
Rises 18:20:10 0° 351° (N) 2,866 7.1 -15.0°
Reaches altitude 10° 18:22:24 10° 352° (N) 1,958 6.2 -15.4°
Maximum altitude 18:26:44 89° 261° (W) 610 3.5 -16.2°
Drops below altitude 10° 18:31:02 10° 174° (S) 1,945 6.0 -16.9°
Sets 18:33:14 0° 174° (S) 2,845 6.9 -17.3°
